Weather History for Nurnberg, Germany

Change the Weather History Date:

Thursday, October 11, 2012

  Actual Average Record
Temperature  
Mean Temperature 43 °F -  
Max Temperature 57 °F 53 °F 68 °F (2006)
Min Temperature 29 °F 38 °F 29 °F (2012)
Degree Days  
Heating Degree Days 22    
Moisture  
Dew Point 36 °F    
Average Humidity 76    
Maximum Humidity 100    
Minimum Humidity 36    
Precipitation  
Precipitation 0.00 in 0.06 in - ()
Sea Level Pressure  
Sea Level Pressure 29.94 in    
Wind  
Wind Speed 4 mph ()    
Max Wind Speed 11 mph    
Max Gust Speed 18 mph    
Visibility 12.9 miles    
Events Fog    
Averages and records for this station are not official NWS values.
T = Trace of Precipitation, MM = Missing Value Source: Averaged Metar Reports

Daily Weather History Graph

Daily Weather History Graph

Search for Another Location

Airport:

Trip Planner

Search our weather history database for the weather conditions in past years. The results will help you decide how hot, cold, wet, or windy it might be!

Date:

Astronomy

Oct. 11, 2012 Rise Set
Actual Time 7:31 AM CEST 6:32 PM CEST
Civil Twilight 6:59 AM CEST 7:04 PM CEST
Nautical Twilight 6:22 AM CEST 7:41 PM CEST
Astronomical Twilight 5:44 AM CEST 8:18 PM CEST
Moon 2:28 AM CEST (10/11) 4:19 PM CEST (10/11)
Length of Visible Light 12h 05m
Length of Day
11h 01m
Waning Crescent, 20% of the Moon is Illuminated
Oct 11
Waning Crescent
Oct 15
New
Oct 22
First Quarter
Oct 29
Full
Nov 7
Last Quarter

Hourly Weather History & Observations

Time (CEST) Temp. Windchill Dew Point Humidity Pressure Visibility Wind Dir Wind Speed Gust Speed Precip Events Conditions
12:00 AM 36 °F - 35 °F 92% 30.05 in 16 mi ESE 2.2 mph - -  
12:20 AM 35.6 °F - 33.8 °F 93% 30.01 in - ENE 2.3 mph - N/A   Clear
12:50 AM 35.6 °F - 33.8 °F 93% 30.01 in - ENE 2.3 mph - N/A   Clear
1:00 AM 35 °F - 34 °F 92% 30.06 in 16 mi SE 2.2 mph - -  
1:20 AM 33.8 °F - 33.8 °F 100% 30.01 in - East 2.3 mph - N/A   Clear
1:50 AM 33.8 °F - 32.0 °F 93% 30.01 in - NE 1.2 mph - N/A   Clear
2:00 AM 33 °F - 33 °F 99% 30.06 in 16 mi ENE 2.2 mph - -  
2:20 AM 32.0 °F - 32.0 °F 100% 30.01 in - East 2.3 mph - N/A   Clear
2:50 AM 32.0 °F - 30.2 °F 93% 30.01 in - ENE 2.3 mph - N/A   Clear
3:00 AM 32 °F - 32 °F 98% 30.06 in 12 mi NE 2.2 mph - -  
3:20 AM 32.0 °F - 30.2 °F 93% 29.98 in - East 1.2 mph - N/A   Clear
3:50 AM 32.0 °F - 30.2 °F 93% 29.98 in 6.2 mi Variable 1.2 mph - N/A Fog Shallow Fog
4:00 AM 32 °F - 31 °F 96% 30.05 in 12 mi ESE 4.5 mph - - Fog Patches of Fog
4:20 AM 32.0 °F - 32.0 °F 100% 29.98 in 6.2 mi NE 1.2 mph - N/A Fog Shallow Fog
4:50 AM 30.2 °F - 30.2 °F 100% 29.98 in 6.2 mi East 1.2 mph - N/A Fog Shallow Fog
5:50 AM 32.0 °F - 32.0 °F 100% 29.98 in 6.2 mi Variable 2.3 mph - N/A Fog Shallow Fog
6:00 AM 31 °F - 31 °F 100% 30.04 in 12 mi East 4.5 mph - - Fog Patches of Fog
6:20 AM 30.2 °F - 30.2 °F 100% 29.98 in 6.2 mi NE 1.2 mph - N/A Fog Shallow Fog
6:50 AM 30.2 °F - 30.2 °F 100% 29.98 in 6.2 mi Variable 1.2 mph - N/A Fog Shallow Fog
7:00 AM 30 °F - 30 °F 99% 30.04 in 16 mi East 2.2 mph - - Fog Patches of Fog
7:20 AM 30.2 °F - 30.2 °F 100% 29.98 in - Variable 1.2 mph - N/A   Clear
7:50 AM 30.2 °F - 30.2 °F 100% 29.98 in - Variable 1.2 mph - N/A   Clear
8:00 AM 30 °F - 30 °F 98% 30.04 in 16 mi NNW 2.2 mph - -  
8:20 AM 30.2 °F - 30.2 °F 100% 29.98 in - Variable 1.2 mph - N/A   Clear
8:50 AM 32.0 °F - 32.0 °F 100% 29.98 in - NNE 1.2 mph - N/A   Clear
9:20 AM 35.6 °F - 35.6 °F 100% 29.98 in - Variable 1.2 mph - N/A   Clear
9:50 AM 41.0 °F 39.0 °F 39.2 °F 93% 29.98 in - ESE 3.5 mph - N/A   Clear
10:00 AM 42 °F - 38 °F 82% 30.00 in 19 mi ESE 2.2 mph - -  
10:20 AM 44.6 °F 41.4 °F 39.2 °F 81% 29.98 in - ESE 5.8 mph - N/A   Clear
10:50 AM 48.2 °F - 39.2 °F 71% 29.95 in - ESE 8.1 mph - N/A   Clear
11:20 AM 50.0 °F - 39.2 °F 66% 29.95 in - East 6.9 mph - N/A   Clear
11:50 AM 51.8 °F - 37.4 °F 58% 29.95 in - ESE 6.9 mph - N/A   Clear
12:00 PM 53 °F - 38 °F 47% 29.95 in 19 mi ESE 8.9 mph - -   Clear
12:20 PM 53.6 °F - 37.4 °F 54% 29.95 in - SE 10.4 mph - N/A   Clear
12:50 PM 55.4 °F - 37.4 °F 51% 29.92 in - SE 9.2 mph - N/A   Clear
1:00 PM 54 °F - 38 °F 44% 29.92 in 19 mi SE 11.2 mph - -   Clear
1:20 PM 55.4 °F - 39.2 °F 54% 29.92 in - SE 9.2 mph - N/A   Clear
1:50 PM 55.4 °F - 37.4 °F 51% 29.92 in - SE 8.1 mph - N/A   Clear
2:00 PM 55 °F - 37 °F 39% 29.90 in 22 mi SE 8.9 mph - -   Clear
2:20 PM 57.2 °F - 37.4 °F 48% 29.89 in - SSE 5.8 mph - N/A   Clear
2:50 PM 57.2 °F - 39.2 °F 51% 29.89 in - ESE 5.8 mph 18.4 mph N/A   Clear
3:00 PM 57 °F - 37 °F 36% 29.88 in 22 mi ESE 6.7 mph - -   Clear
3:20 PM 57.2 °F - 37.4 °F 48% 29.89 in - ESE 5.8 mph - N/A   Clear
3:50 PM 57.2 °F - 39.2 °F 51% 29.86 in - SE 5.8 mph - N/A   Clear
4:00 PM 57 °F - 38 °F 36% 29.87 in 22 mi SE 6.7 mph - -   Scattered Clouds
4:20 PM 57.2 °F - 37.4 °F 48% 29.86 in - SE 6.9 mph - N/A   Clear
4:50 PM 57.2 °F - 39.2 °F 51% 29.86 in - ESE 8.1 mph - N/A   Clear
5:20 PM 55.4 °F - 37.4 °F 51% 29.86 in - East 8.1 mph - N/A   Clear
5:50 PM 53.6 °F - 39.2 °F 58% 29.86 in - SE 6.9 mph - N/A   Clear
6:00 PM 53 °F - 39 °F 47% 29.86 in 19 mi SE 6.7 mph - -   Scattered Clouds
6:20 PM 51.8 °F - 37.4 °F 58% 29.86 in - ESE 4.6 mph - N/A   Clear
6:50 PM 50.0 °F - 39.2 °F 66% 29.86 in - East 3.5 mph - N/A   Clear
7:00 PM 50 °F - 38 °F 54% 29.87 in 17 mi East 4.5 mph - -   Scattered Clouds
7:20 PM 48.2 °F - 39.2 °F 71% 29.86 in - East 4.6 mph - N/A   Clear
7:50 PM 48.2 °F - 37.4 °F 66% 29.86 in - East 5.8 mph - N/A   Clear
8:00 PM 47 °F - 38 °F 63% 29.87 in 16 mi East 6.7 mph - -   Scattered Clouds
8:20 PM 44.6 °F 40.2 °F 37.4 °F 76% 29.86 in - East 8.1 mph - N/A   Clear
8:50 PM 46.4 °F 42.4 °F 39.2 °F 76% 29.86 in - East 8.1 mph - N/A   Clear
9:20 PM 46.4 °F 42.4 °F 39.2 °F 76% 29.86 in - East 8.1 mph - N/A   Clear
9:50 PM 44.6 °F 40.2 °F 39.2 °F 81% 29.86 in - East 8.1 mph - N/A   Clear
10:00 PM 45 °F - 40 °F 75% 29.88 in 16 mi East 8.9 mph - -   Mostly Cloudy
10:20 PM 44.6 °F 42.2 °F 39.2 °F 81% 29.86 in - East 4.6 mph - N/A   Clear
10:50 PM 46.4 °F 43.5 °F 41.0 °F 81% 29.86 in - ESE 5.8 mph - N/A   Clear
11:20 PM 46.4 °F 43.5 °F 41.0 °F 81% 29.86 in 6.2 mi East 5.8 mph - N/A   Mostly Cloudy
11:50 PM 46.4 °F 44.3 °F 41.0 °F 81% 29.86 in - ESE 4.6 mph - N/A   Clear